Radiation Dose at Monitoring Post of Fukushima Daini Nuclear Power Station
Date,Time,MP-1(microSv/h),MP-2(microSv/h),MP-3(microSv/h),MP-4(microSv/h),MP-5(microSv/h),MP-6(microSv/h),MP-7(microSv/h),Wind Direction,Wind Velocity(m/s),Rain
2023/02/15,00:00,0.152,0.137,0.213,0.208,0.210,0.120,0.078,northwest,4.8,Yes
2023/02/15,00:10,0.152,0.137,0.212,0.209,0.211,0.121,0.077,northwest,7.3,Yes
2023/02/15,00:20,0.152,0.138,0.213,0.208,0.210,0.122,0.078,northwest,7.3,Yes
2023/02/15,00:30,0.151,0.138,0.213,0.208,0.211,0.122,0.078,northwest,4.1,Yes
2023/02/15,00:40,0.152,0.136,0.212,0.208,0.210,0.121,0.077,north-northwest,3.2,No
2023/02/15,00:50,0.153,0.137,0.212,0.209,0.212,0.121,0.078,northwest,2.3,No
2023/02/15,01:00,0.152,0.138,0.212,0.209,0.210,0.121,0.077,north-northwest,2.1,Yes
2023/02/15,01:10,0.153,0.137,0.211,0.208,0.212,0.120,0.078,north-northwest,2.2,No
2023/02/15,01:20,0.151,0.138,0.212,0.208,0.211,0.120,0.077,northwest,2.4,No
2023/02/15,01:30,0.153,0.137,0.212,0.208,0.210,0.121,0.078,north-northwest,1.7,No
2023/02/15,01:40,0.153,0.137,0.213,0.209,0.210,0.121,0.077,north-northwest,2.1,No
2023/02/15,01:50,0.152,0.137,0.212,0.209,0.210,0.121,0.078,northwest,1.7,No
2023/02/15,02:00,0.151,0.137,0.212,0.207,0.211,0.121,0.078,northwest,2.2,No
2023/02/15,02:10,0.152,0.138,0.212,0.209,0.209,0.121,0.078,west-northwest,3.3,No
2023/02/15,02:20,0.153,0.137,0.211,0.209,0.210,0.121,0.077,northwest,3.8,No
2023/02/15,02:30,0.152,0.136,0.212,0.209,0.210,0.120,0.078,northwest,3.7,No
2023/02/15,02:40,0.152,0.136,0.211,0.210,0.210,0.120,0.077,northwest,5.0,No
2023/02/15,02:50,0.152,0.137,0.213,0.208,0.210,0.121,0.077,northwest,5.5,No
2023/02/15,03:00,0.153,0.137,0.212,0.209,0.211,0.120,0.077,west-northwest,6.0,No
2023/02/15,03:10,0.152,0.137,0.212,0.209,0.210,0.121,0.077,west-northwest,5.4,No
2023/02/15,03:20,0.151,0.137,0.212,0.209,0.211,0.120,0.077,west-northwest,5.5,No
2023/02/15,03:30,0.152,0.137,0.212,0.209,0.210,0.121,0.078,west-northwest,5.9,No
2023/02/15,03:40,0.152,0.137,0.211,0.209,0.210,0.120,0.078,west-northwest,6.7,No
2023/02/15,03:50,0.152,0.137,0.211,0.208,0.210,0.120,0.077,west-northwest,7.6,No
2023/02/15,04:00,0.152,0.137,0.212,0.208,0.210,0.120,0.077,west-northwest,6.8,No
2023/02/15,04:10,0.152,0.137,0.212,0.208,0.210,0.121,0.077,west-northwest,6.4,No
2023/02/15,04:20,0.153,0.136,0.211,0.208,0.211,0.120,0.078,west,6.6,No
2023/02/15,04:30,0.152,0.137,0.211,0.208,0.210,0.121,0.077,west,8.7,No
2023/02/15,04:40,0.152,0.137,0.212,0.208,0.210,0.121,0.077,west,7.0,No
2023/02/15,04:50,0.152,0.136,0.212,0.208,0.210,0.120,0.078,west,5.7,No
2023/02/15,05:00,0.151,0.136,0.211,0.210,0.210,0.121,0.079,west-northwest,3.0,No
2023/02/15,05:10,0.153,0.137,0.212,0.208,0.211,0.120,0.077,west-northwest,1.5,No
2023/02/15,05:20,0.151,0.136,0.211,0.208,0.211,0.120,0.077,northeast,1.7,No
2023/02/15,05:30,0.151,0.137,0.211,0.208,0.209,0.121,0.078,north-northwest,2.6,No
2023/02/15,05:40,0.152,0.136,0.211,0.209,0.209,0.121,0.078,north-northwest,3.2,No
2023/02/15,05:50,0.152,0.137,0.211,0.207,0.211,0.121,0.077,northwest,3.5,No
2023/02/15,06:00,0.151,0.136,0.211,0.208,0.211,0.120,0.078,west-northwest,2.3,No
2023/02/15,06:10,0.152,0.136,0.212,0.207,0.210,0.120,0.077,north,1.4,No
2023/02/15,06:20,0.152,0.137,0.211,0.208,0.210,0.120,0.077,north,1.5,No
2023/02/15,06:30,0.152,0.138,0.212,0.210,0.210,0.121,0.077,west-northwest,2.0,No
2023/02/15,06:40,0.152,0.137,0.213,0.209,0.212,0.120,0.078,north-northwest,3.2,No
2023/02/15,06:50,0.151,0.136,0.212,0.208,0.211,0.120,0.078,northwest,2.7,No
2023/02/15,07:00,0.152,0.136,0.212,0.208,0.210,0.120,0.078,northwest,2.4,No
2023/02/15,07:10,0.151,0.136,0.211,0.208,0.210,0.120,0.078,west-northwest,2.1,No
2023/02/15,07:20,0.152,0.137,0.212,0.206,0.209,0.120,0.077,west-northwest,1.5,No
2023/02/15,07:30,0.152,0.137,0.211,0.208,0.209,0.120,0.077,west-northwest,3.4,No
2023/02/15,07:40,0.152,0.136,0.211,0.207,0.210,0.120,0.077,west-northwest,6.2,No
2023/02/15,07:50,0.151,0.137,0.212,0.207,0.210,0.120,0.077,west,7.0,No
2023/02/15,08:00,0.151,0.136,0.212,0.208,0.210,0.121,0.077,west,7.4,No
2023/02/15,08:10,0.152,0.137,0.212,0.208,0.209,0.119,0.077,west-northwest,6.4,No
2023/02/15,08:20,0.151,0.137,0.211,0.206,0.209,0.119,0.076,west-northwest,6.8,No
2023/02/15,08:30,0.150,0.136,0.212,0.207,0.210,0.120,0.076,west-northwest,8.6,No
2023/02/15,08:40,0.152,0.136,0.211,0.208,0.210,0.120,0.077,northwest,8.8,No
2023/02/15,08:50,0.152,0.136,0.211,0.208,0.210,0.120,0.077,west-northwest,8.2,No
2023/02/15,09:00,0.152,0.136,0.210,0.208,0.211,0.120,0.077,northwest,8.1,No
2023/02/15,09:10,0.152,0.137,0.212,0.208,0.211,0.121,0.077,north-northwest,6.7,No
2023/02/15,09:20,0.152,0.137,0.212,0.207,0.209,0.120,0.076,west-northwest,6.4,No
2023/02/15,09:30,0.152,0.136,0.212,0.208,0.211,0.120,0.077,west-northwest,6.2,No
2023/02/15,09:40,0.152,0.136,0.211,0.208,0.210,0.120,0.077,west-northwest,5.9,No
2023/02/15,09:50,0.152,0.136,0.211,0.208,0.209,0.120,0.076,west-northwest,4.4,No
2023/02/15,10:00,0.151,0.137,0.211,0.208,0.210,0.121,0.078,west,6.4,No
2023/02/15,10:10,0.151,0.136,0.212,0.208,0.210,0.120,0.077,west,6.6,No
2023/02/15,10:20,0.152,0.137,0.211,0.207,0.210,0.120,0.077,west-northwest,4.4,No
2023/02/15,10:30,0.152,0.138,0.211,0.208,0.209,0.120,0.077,west,5.1,No
2023/02/15,10:40,0.152,0.137,0.213,0.208,0.211,0.120,0.077,west-northwest,4.6,No
2023/02/15,10:50,0.151,0.137,0.211,0.208,0.211,0.121,0.078,northwest,4.5,No
2023/02/15,11:00,0.152,0.137,0.211,0.207,0.210,0.121,0.078,northwest,3.4,No
2023/02/15,11:10,0.152,0.137,0.212,0.208,0.211,0.120,0.077,northwest,5.2,No
2023/02/15,11:20,0.151,0.137,0.212,0.209,0.211,0.121,0.078,northwest,5.2,No
2023/02/15,11:30,0.152,0.137,0.212,0.208,0.211,0.121,0.078,west-northwest,10.1,No
2023/02/15,11:40,0.152,0.137,0.212,0.207,0.211,0.121,0.078,west-northwest,8.4,No
2023/02/15,11:50,0.152,0.137,0.212,0.210,0.212,0.120,0.078,northwest,6.4,No
2023/02/15,12:00,0.153,0.138,0.212,0.209,0.211,0.121,0.077,northwest,7.4,No
2023/02/15,12:10,0.153,0.137,0.213,0.208,0.212,0.121,0.078,northwest,6.4,Yes
2023/02/15,12:20,0.151,0.137,0.212,0.209,0.210,0.121,0.077,northwest,9.5,No
2023/02/15,12:30,0.152,0.137,0.212,0.209,0.211,0.122,0.078,west-northwest,7.4,No
2023/02/15,12:40,0.154,0.138,0.214,0.210,0.213,0.120,0.077,west-northwest,9.0,No
2023/02/15,12:50,0.154,0.138,0.213,0.210,0.212,0.121,0.077,west-northwest,7.8,No
2023/02/15,13:00,0.151,0.138,0.213,0.210,0.212,0.122,0.077,west-northwest,7.3,No
2023/02/15,13:10,0.153,0.138,0.213,0.210,0.212,0.121,0.077,northwest,9.8,No
2023/02/15,13:20,0.152,0.139,0.213,0.208,0.211,0.121,0.078,northwest,7.1,No
2023/02/15,13:30,0.153,0.138,0.212,0.209,0.212,0.121,0.077,north,5.7,No
2023/02/15,13:40,0.153,0.137,0.213,0.209,0.212,0.121,0.078,north,5.7,Yes
2023/02/15,13:50,0.153,0.138,0.213,0.209,0.211,0.121,0.077,north,3.9,Yes
2023/02/15,14:00,0.153,0.137,0.213,0.211,0.211,0.122,0.077,north-northwest,4.5,No
2023/02/15,14:10,0.153,0.137,0.214,0.211,0.213,0.121,0.078,northwest,7.0,Yes
2023/02/15,14:20,0.154,0.139,0.214,0.211,0.213,0.122,0.079,northwest,9.3,Yes
2023/02/15,14:30,0.154,0.140,0.216,0.212,0.214,0.123,0.080,west-northwest,7.6,Yes
2023/02/15,14:40,0.157,0.141,0.217,0.215,0.216,0.126,0.082,west-northwest,9.3,Yes
2023/02/15,14:50,0.157,0.142,0.218,0.215,0.217,0.127,0.083,northwest,7.3,Yes
2023/02/15,15:00,0.157,0.143,0.218,0.215,0.216,0.127,0.082,northwest,7.5,Yes
2023/02/15,15:10,0.156,0.142,0.217,0.213,0.215,0.126,0.082,west-northwest,7.7,No
2023/02/15,15:20,0.156,0.140,0.217,0.213,0.215,0.126,0.081,west-northwest,8.4,No
2023/02/15,15:30,0.155,0.140,0.216,0.213,0.213,0.125,0.081,west-northwest,9.6,No
2023/02/15,15:40,0.154,0.140,0.215,0.213,0.214,0.124,0.080,northwest,6.8,No
2023/02/15,15:50,0.155,0.139,0.215,0.212,0.213,0.122,0.080,northwest,6.5,No
2023/02/15,16:00,0.155,0.140,0.214,0.212,0.212,0.123,0.079,northwest,9.5,No
2023/02/15,16:10,0.153,0.139,0.214,0.211,0.212,0.122,0.079,northwest,9.0,No
2023/02/15,16:20,0.155,0.138,0.215,0.211,0.213,0.122,0.079,northwest,8.9,No
2023/02/15,16:30,0.154,0.138,0.215,0.210,0.212,0.122,0.078,northwest,5.8,No
2023/02/15,16:40,0.154,0.138,0.214,0.210,0.211,0.122,0.078,west-northwest,7.1,No
2023/02/15,16:50,0.153,0.138,0.214,0.210,0.211,0.122,0.078,northwest,5.7,No
2023/02/15,17:00,0.153,0.138,0.215,0.210,0.212,0.122,0.077,northwest,5.5,No
2023/02/15,17:10,0.153,0.138,0.213,0.210,0.211,0.121,0.077,northwest,3.9,No
2023/02/15,17:20,0.153,0.138,0.213,0.210,0.210,0.121,0.078,northwest,4.4,No
2023/02/15,17:30,0.153,0.137,0.212,0.209,0.211,0.121,0.077,northwest,4.3,No
2023/02/15,17:40,0.153,0.138,0.213,0.210,0.212,0.122,0.077,northwest,4.7,No
2023/02/15,17:50,0.152,0.139,0.213,0.211,0.210,0.121,0.078,northwest,3.7,No
2023/02/15,18:00,0.153,0.137,0.213,0.210,0.212,0.121,0.078,northwest,4.2,No
2023/02/15,18:10,0.152,0.138,0.212,0.209,0.212,0.120,0.078,west-northwest,4.4,No
2023/02/15,18:20,0.152,0.137,0.213,0.210,0.210,0.120,0.077,northwest,6.5,No
2023/02/15,18:30,0.153,0.137,0.213,0.209,0.210,0.121,0.077,northwest,6.4,No
2023/02/15,18:40,0.152,0.137,0.214,0.210,0.212,0.120,0.077,northwest,4.3,No
2023/02/15,18:50,0.153,0.137,0.214,0.211,0.211,0.121,0.077,northwest,5.6,No
2023/02/15,19:00,0.154,0.137,0.213,0.209,0.211,0.121,0.077,northwest,6.0,No
2023/02/15,19:10,0.154,0.138,0.213,0.210,0.211,0.121,0.078,northwest,5.3,No
2023/02/15,19:20,0.153,0.138,0.212,0.209,0.210,0.121,0.077,northwest,5.9,No
2023/02/15,19:30,0.153,0.137,0.213,0.209,0.209,0.120,0.077,northwest,5.1,No
2023/02/15,19:40,0.153,0.136,0.213,0.209,0.211,0.121,0.077,northwest,4.5,No
2023/02/15,19:50,0.153,0.137,0.213,0.209,0.212,0.121,0.077,northwest,3.4,No
2023/02/15,20:00,0.153,0.138,0.212,0.210,0.211,0.121,0.077,west-northwest,2.6,No
2023/02/15,20:10,0.153,0.137,0.213,0.209,0.212,0.121,0.078,west-northwest,3.8,No
2023/02/15,20:20,0.152,0.137,0.213,0.210,0.211,0.120,0.078,northwest,5.2,No
2023/02/15,20:30,0.153,0.137,0.213,0.209,0.211,0.121,0.078,northwest,3.9,No
2023/02/15,20:40,0.154,0.136,0.214,0.209,0.211,0.120,0.077,northwest,5.1,No
2023/02/15,20:50,0.153,0.137,0.213,0.210,0.212,0.121,0.078,northwest,6.0,No
2023/02/15,21:00,0.152,0.138,0.213,0.210,0.212,0.122,0.077,northwest,5.0,No
2023/02/15,21:10,0.153,0.137,0.213,0.210,0.211,0.121,0.078,west-northwest,5.7,No
2023/02/15,21:20,0.152,0.137,0.214,0.210,0.211,0.121,0.078,west-northwest,5.2,No
2023/02/15,21:30,0.152,0.137,0.212,0.209,0.211,0.121,0.078,west-northwest,4.9,No
2023/02/15,21:40,0.153,0.136,0.214,0.210,0.211,0.121,0.077,west-northwest,4.8,No
2023/02/15,21:50,0.153,0.138,0.213,0.209,0.211,0.120,0.077,west-northwest,4.6,No
2023/02/15,22:00,0.153,0.138,0.214,0.209,0.211,0.121,0.077,west-northwest,4.9,No
2023/02/15,22:10,0.152,0.138,0.213,0.209,0.211,0.120,0.078,west-northwest,5.0,No
2023/02/15,22:20,0.152,0.137,0.213,0.209,0.210,0.121,0.077,west-northwest,5.0,No
2023/02/15,22:30,0.153,0.137,0.213,0.209,0.211,0.121,0.077,west-northwest,5.0,No
2023/02/15,22:40,0.153,0.137,0.213,0.209,0.211,0.120,0.077,west-northwest,4.7,No
2023/02/15,22:50,0.153,0.136,0.213,0.209,0.211,0.120,0.077,northwest,5.2,No
2023/02/15,23:00,0.152,0.137,0.212,0.209,0.211,0.121,0.078,west-northwest,5.7,No
2023/02/15,23:10,0.152,0.137,0.213,0.209,0.211,0.121,0.077,west-northwest,5.8,No
2023/02/15,23:20,0.152,0.137,0.213,0.210,0.210,0.121,0.078,west-northwest,5.1,No
2023/02/15,23:30,0.152,0.137,0.212,0.209,0.210,0.121,0.077,west-northwest,5.2,No
2023/02/15,23:40,0.153,0.137,0.212,0.209,0.212,0.120,0.076,west-northwest,6.0,No
2023/02/15,23:50,0.153,0.137,0.213,0.209,0.212,0.120,0.078,west-northwest,5.9,No
